SCP
0 0 -0 0 -0 0 0 0 0 0 0 -0 -0 -0 0 0 0 0 0 0 0 0 0 0 0 0 0 0 0 0 0 0 0 0 0 0 0 0 0 0 0 0 0 0 0
0 -0 -0 -0 -0 -0 0 0 0 0 0 -0 0 -0 0 0 0 0 0 0 0 0 0 0 0 0 0 0 0 0 0 0 0 0 0 0 0 0 0 0 0 0 0 0 0
0 -0 -0 -0 -0 -0 0 0 0 0 0 -0 0 -0 0 0 0 0 0 0 0 0 0 0 0 0 0 0 0 0 0 0 0 0 0 0 0 0 0 0 0 0 0 0 0
0 0 -0 -0 -0 0 0 0 0 0 0 0 -0 -0 0 0 0 0 -0 -0 0 0 0 0 0 0 0 0 0 0 0 0 0 0 0 0 0 0 0 0 0 0 0 0 0
-0 0 0 -0 -0 0 0 0 0 0 0 0 0 -0 -0 0 0 0 -0 -0 -0 0 0 0 0 0 0 0 0 0 0 0 0 0 0 0 0 0 0 0 0 0 0 0 0
0 0 0 0 -0 -0 0 0 0 0 0 0 -0 0 -0 0 0 0 -0 -0 0 0 0 0 0 0 0 0 0 0 0 0 0 0 0 0 0 0 0 0 0 0 0 0 0
0 0 0 0 0 0 -0 0 0 0 0 0 -0 -0 0 -0 0 0 0 0 0 0 0 0 0 0 0 0 0 0 0 0 0 0 0 0 0 0 0 0 0 0 0 0 0
-0 0 -0 0 0 0 0 0 -0 0 0 0 0 0 -0 -0 0 -0 -0 0 0 0 0 0 0 0 0 0 0 0 0 0 0 0 0 0 0 0 0 0 0 0 0 0 0
0 0 -0 0 -0 0 0 0 -0 0 0 -0 0 -0 -0 -0 -0 0 -0 0 0 0 0 0 0 0 0 0 0 0 0 0 0 0 0 0 0 0 0 0 0 0 0 0 0
0 0 0 0 0 -0 0 -0 0 -0 -0 0 -0 -0 -0 -0 -0 -0 0 0 0 0 0 0 0 0 0 0 0 0 0 0 0 0 0 0 0 0 0 0 0 0 0 0 0
0 0 -0 0 -0 0 0 0 0 0 0 0 0 0 0 0 0 0 0 0 0 0 0 0 0 0 0 0 0 0 0 0 0 0 0 0 0 0 0 0 0 0 0 0 0
0 0 -0 -0 -0 0 0 0 0 0 0 -0 -0 -0 0 0 0 -0 -0 -0 0 0 0 0 0 0 0 0 0 0 0 0 0 0 0 0 0 0 0 0 0 0 0 0 0
0 0 -0 0 -0 0 0 0 0 0 0 0 0 0 0 0 0 0 -0 -0 0 -0 0 0 0 0 0 0 0 0 0 0 0 0 0 0 0 0 0 0 0 0 0 0 0
-0 0 0 -0 0 0 0 0 0 0 0 0 0 0 0 0 0 0 0 0 0 0 0 0 0 0 0 0 0 0 0 0 0 0 0 0 0 0 0 0 0 0 0 0 0
-0 -0 -0 -0 -0 0 0 0 0 0 0 0 0 0 0 0 0 0 0 -0 0 0 0 0 0 0 0 0 0 0 0 0 0 0 0 0 0 0 0 0 0 0 0 0 0
-0 -0 -0 0 0 -0 -0 0 0 0 0 0 0 0 0 0 0 0 0 -0 0 0 0 0 0 0 0 0 0 0 0 0 0 0 0 0 0 0 0 0 0 0 0 0 0
-0 -0 0 0 0 -0 -0 0 0 0 0 0 0 0 0 0 0 0 0 0 0 0 0 0 0 0 0 0 0 0 0 0 0 0 0 0 0 0 0 0 0 0 0 0 0
-0 -0 0 0 -0 -0 0 0 0 0 0 0 0 0 0 0 0 0 0 0 0 0 0 0 0 0 0 0 0 0 0 0 0 0 0 0 0 0 0 0 0 0 0 0 0
-0 0 0 0 -0 -0 -0 -0 0 0 0 0 0 0 0 0 0 0 0 0 0 0 0 0 0 0 0 0 0 0 0 0 0 0 0 0 0 0 0 0 0 0 0 0 0
-0 0 0 -0 0 0 -0 0 0 0 0 0 0 0 0 0 0 0 0 0 0 0 0 0 0 0 0 0 0 0 0 0 0 0 0 0 0 0 0 0 0 0 0 0 0
-0 0 0 -0 0 0 0 0 0 0 0 0 0 0 0 0 0 0 0 0 0 0 0 0 0 0 0 0 0 0 0 0 0 0 0 0 0 0 0 0 0 0 0 0 0
-0 0 0 -0 0 0 0 0 0 0 0 0 0 0 0 0 0 0 0 0 0 0 0 0 0 0 0 0 0 0 0 0 0 0 0 0 0 0 0 0 0 0 0 0 0
-0 0 0 -0 0 0 0 0 0 0 0 0 0 0 0 0 0 0 0 0 0 0 0 0 0 0 0 0 0 0 0 0 0 0 0 0 0 0 0 0 0 0 0 0 0
-0 0 0 0 0 0 0 0 0 0 0 0 0 0 0 0 0 0 0 0 0 0 0 0 0 0 0 0 0 0 0 0 0 0 0 0 0 0 0 0 0 0 0 0 0
0 0 0 0 0 0 0 0 0 0 0 0 0 0 0 0 0 0 0 0 0 0 0 0 0 0 0 0 0 0 0 0 0 0 0 0 0 0 0 0 0 0 0 0 0
0 0 0 0 0 0 0 0 0 0 0 0 0 0 0 0 0 0 0 0 0 0 0 0 0 0 0 0 0 0 0 0 0 0 0 0 0 0 0 0 0 0 0 0 0
0 0 0 0 0 0 0 0 0 0 0 0 0 0 0 0 0 0 0 0 0 0 0 0 0 0 0 0 0 0 0 0 0 0 0 0 0 0 0 0 0 0 0 0 0
Wind_Speed_500mb
39 37 34 27 22 21 20 21 21 21 21 19 22 24 25 23 22 27 32 24 23 27 18 21 29 27 24 25 20 20 22 30 36 29 15 12 17 8 6 10 6 3 4 10 6
41 37 33 28 22 20 22 22 22 21 19 18 18 19 20 20 21 34 16 20 26 30 22 29 35 34 32 30 22 27 26 40 26 20 18 15 10 4 10 15 14 13 6 9 3
48 38 31 27 24 23 21 21 21 22 18 15 16 14 14 15 14 3 8 17 23 35 22 25 29 34 29 27 28 29 28 27 12 31 25 22 16 22 24 24 23 18 16 15 9
55 49 37 28 22 23 21 18 19 20 21 15 11 11 9 9 1 2 6 14 30 36 25 26 33 32 29 24 29 20 33 21 27 27 28 25 28 20 26 34 26 30 29 26 24
57 59 50 35 25 19 20 18 17 19 20 17 10 6 6 11 8 9 9 24 37 29 27 29 34 29 27 30 22 30 20 27 30 27 28 26 27 28 27 26 30 25 22 23 24
54 59 58 47 30 22 18 17 17 17 19 19 12 6 4 13 5 2 15 28 21 25 24 23 21 19 18 16 29 18 27 23 24 28 30 29 31 28 19 20 25 23 24 22 22
52 56 59 59 37 26 20 18 19 20 21 16 15 8 13 12 6 10 17 16 20 20 22 21 19 23 15 15 14 16 20 24 29 28 23 22 32 30 30 25 24 22 21 20 19
50 55 59 60 56 28 23 19 20 28 22 14 12 7 11 15 12 18 18 14 20 17 14 14 17 13 20 8 17 24 19 24 17 20 27 22 28 20 16 20 26 19 20 19 21
53 56 57 59 55 37 21 20 24 20 12 7 6 5 6 15 16 23 23 14 16 12 11 10 17 12 16 24 20 19 22 23 18 21 12 26 21 9 15 14 18 19 17 16 17
56 59 57 56 56 46 20 17 17 14 7 5 11 10 13 19 19 22 23 17 15 17 18 17 19 19 20 20 23 21 26 20 21 13 19 26 24 20 25 22 23 20 20 21 18
58 62 62 54 53 47 16 11 3 6 14 19 7 7 8 10 15 22 26 24 16 24 22 26 20 24 27 25 17 9 13 17 14 10 18 27 26 23 24 24 28 28 24 24 26
62 63 66 58 49 36 14 11 8 8 19 27 28 34 24 6 16 24 32 33 24 26 18 15 28 23 8 11 19 20 22 24 19 19 13 26 29 26 22 26 33 29 29 30 30
64 66 67 58 41 18 13 16 10 10 13 4 14 21 24 28 20 31 41 41 23 28 24 29 2 9 24 24 24 25 25 17 20 13 19 27 35 34 28 34 30 33 36 30 25
69 73 66 53 18 13 13 16 9 8 9 14 10 8 22 22 18 25 41 33 19 24 24 22 27 18 20 29 27 25 21 22 23 22 19 4 22 24 17 23 25 35 30 28 27
77 75 52 33 18 9 8 13 7 4 7 9 12 11 25 29 11 27 35 34 28 21 15 5 12 26 31 30 28 27 5 20 22 26 29 33 21 26 26 19 29 27 31 29 27
80 54 32 8 10 13 19 7 5 11 5 10 11 15 22 30 9 11 29 32 20 24 26 32 7 10 17 14 16 8 16 27 25 25 30 36 33 22 21 23 22 22 20 20 17
58 39 24 8 5 16 18 8 10 10 2 7 5 10 12 15 23 15 25 33 21 21 28 33 36 36 22 27 27 25 24 19 25 25 26 28 27 22 22 16 21 18 16 15 18
35 23 21 10 15 20 13 11 11 8 6 5 5 10 9 3 4 14 22 21 28 27 28 26 28 35 22 34 34 33 34 26 31 25 26 12 14 12 1 12 21 8 8 10 16
17 26 24 17 17 10 12 10 9 6 8 11 15 17 13 9 5 6 10 9 8 3 20 17 27 2 12 17 17 25 22 32 41 42 36 39 45 34 26 19 17 12 10 16 23
18 9 21 15 9 5 11 6 1 9 14 10 15 3 21 10 8 5 12 15 12 7 15 8 24 25 19 16 27 25 29 21 21 29 43 31 32 20 14 17 20 14 8 20 29
13 1 21 2 5 11 8 6 3 12 17 10 15 19 20 17 14 15 13 14 21 22 18 19 14 22 26 21 27 20 27 34 32 30 27 28 20 13 7 6 10 17 25 33 35
11 1 24 4 9 3 4 6 5 12 13 8 11 14 16 7 17 18 22 3 11 10 14 9 12 25 38 27 15 22 29 32 19 22 25 21 21 24 3 1 3 22 31 41 45
11 6 16 8 4 4 2 4 8 12 10 9 14 9 6 19 12 17 19 7 21 19 5 3 10 14 19 32 34 34 33 34 26 14 31 25 18 12 6 18 27 30 39 34 32
8 2 9 17 14 12 12 6 7 10 17 13 15 16 22 25 19 12 14 8 13 20 9 4 19 23 25 25 7 14 14 17 17 9 28 30 38 31 33 27 28 31 29 31 34
12 6 6 6 10 13 8 8 15 9 5 12 6 15 9 6 16 14 17 22 19 23 28 9 15 27 33 34 35 34 38 38 39 33 33 34 43 37 32 30 24 23 28 30 26
8 8 3 5 6 11 3 5 8 8 7 7 10 7 7 9 14 7 6 5 14 13 18 21 11 18 23 22 24 36 41 42 44 43 42 41 42 32 12 16 21 25 25 34 35
6 6 5 5 3 6 2 6 11 18 15 18 7 12 15 25 29 35 38 30 22 21 13 7 13 7 20 13 20 25 31 31 35 31 27 29 21 21 24 20 26 33 36 43 47
Wind_Direction_500mb
9 6 358 351 348 345 342 338 332 321 308 298 289 283 279 273 273 273 259 241 232 213 197 182 189 192 191 203 207 215 230 228 218 225 211 201 218 206 263 259 287 271 343 7 125
8 4 1 354 351 352 345 343 338 331 317 298 285 285 284 282 280 271 270 232 213 204 184 178 181 182 191 203 202 215 225 230 235 222 237 185 235 226 268 237 249 241 195 27 109
8 2 360 353 341 341 345 345 345 341 334 307 289 282 283 295 292 198 242 204 195 175 179 183 181 182 195 196 200 213 241 224 251 245 246 249 243 261 267 257 252 260 272 271 263
18 9 356 350 341 332 335 341 345 348 341 329 307 295 296 299 353 267 251 174 162 161 167 167 176 189 201 199 194 223 229 240 230 235 247 252 262 250 255 259 277 274 278 281 272
12 14 6 346 336 328 324 326 336 340 342 338 323 308 316 262 265 285 189 156 160 162 174 177 182 194 204 205 196 228 217 224 237 244 248 258 252 256 252 256 263 265 267 273 266
8 7 8 358 333 321 315 310 318 328 331 329 322 310 312 249 244 167 154 165 170 171 182 186 195 198 200 206 211 204 238 237 235 237 242 251 251 239 237 228 248 253 256 256 262
359 1 2 4 346 319 309 302 305 308 310 308 308 301 262 253 183 158 147 164 179 177 184 185 189 188 171 180 201 210 232 222 231 229 234 245 250 235 245 246 251 247 249 254 262
348 352 353 355 359 328 305 301 301 305 292 279 294 296 249 214 183 172 163 149 158 158 153 174 175 205 216 145 184 215 231 238 204 212 221 220 257 231 201 239 241 245 250 252 258
337 339 343 345 348 342 302 296 306 302 280 242 286 233 226 204 191 189 177 164 169 180 165 132 172 198 184 204 203 202 247 209 192 201 212 214 249 116 197 229 236 242 245 253 253
335 334 333 337 337 343 301 296 310 303 249 241 232 246 226 202 182 177 187 167 162 154 162 190 200 207 220 214 227 231 221 235 250 166 221 230 241 239 246 223 232 244 256 259 258
329 328 326 328 328 332 281 287 292 210 219 241 283 254 167 178 182 194 193 188 188 201 204 203 222 217 215 220 305 285 263 255 251 245 252 253 253 253 254 228 240 243 252 260 263
327 325 321 319 319 322 251 224 274 303 290 257 244 241 240 199 199 198 189 194 201 213 203 200 230 244 236 228 224 225 240 246 262 255 267 261 261 255 255 247 246 259 262 261 263
328 326 320 313 313 304 248 228 252 315 267 241 221 233 214 197 210 192 192 203 211 222 212 244 101 303 204 208 220 225 242 247 258 273 261 266 267 254 243 244 253 254 260 263 255
329 325 319 311 311 257 271 215 265 307 273 133 189 194 183 192 219 205 198 202 218 239 226 256 249 216 211 225 218 246 205 251 260 266 269 44 280 273 252 240 246 250 249 248 262
332 329 315 300 256 265 224 200 277 227 274 127 118 152 167 192 110 190 198 208 231 208 224 181 202 215 226 228 224 254 294 261 268 266 271 257 250 265 243 232 246 249 249 261 265
343 338 336 313 235 219 186 214 193 230 196 127 134 170 168 208 180 139 195 216 247 242 225 265 171 256 239 227 231 198 235 247 251 255 255 251 250 264 255 219 235 242 256 259 278
354 4 18 88 132 166 172 179 230 254 119 120 118 182 214 188 221 204 188 202 220 217 231 241 241 241 230 249 220 223 250 255 248 230 246 250 253 269 286 260 270 290 318 311 298
359 12 19 23 165 152 165 217 250 53 3 32 286 251 235 191 183 219 225 224 218 272 277 270 255 236 218 233 253 243 233 252 271 272 278 148 238 251 77 305 293 299 294 318 331
4 33 26 50 143 152 241 234 8 12 355 329 292 251 187 133 191 225 321 304 24 298 250 271 244 4 246 259 239 251 228 255 278 268 269 270 273 261 228 240 234 264 297 336 336
14 50 22 61 105 155 248 14 317 7 331 294 285 284 276 240 245 325 347 357 284 3 343 303 281 261 268 279 257 254 285 261 226 259 258 252 247 260 189 243 189 234 313 318 321
29 222 359 17 34 242 288 51 339 349 341 313 295 278 284 265 258 204 198 190 209 256 292 322 269 258 245 227 249 237 244 236 264 271 270 271 270 43 292 313 323 314 320 314 313
14 223 354 34 232 338 334 9 324 335 345 292 288 293 270 272 273 281 278 275 259 311 276 250 287 263 258 264 230 246 263 268 248 256 259 273 263 305 252 227 266 311 310 306 304
354 347 352 357 331 52 19 247 345 335 343 314 281 268 301 277 267 270 263 287 257 257 260 14 231 265 246 232 239 250 252 241 254 249 241 252 248 150 222 243 302 312 309 306 311
340 288 49 57 49 343 347 329 315 335 294 306 297 290 277 259 238 249 265 269 328 285 255 224 253 254 271 297 298 282 278 266 265 256 264 255 267 278 280 305 307 314 305 308 314
11 62 20 1 39 347 330 326 333 333 322 338 302 281 264 262 263 239 264 278 271 259 234 214 259 265 269 275 276 274 269 261 245 249 254 274 279 289 304 309 324 300 301 313 308
13 350 357 80 360 337 297 335 312 19 345 304 246 285 291 256 258 284 292 261 270 266 229 193 258 261 265 255 260 261 259 258 258 258 255 263 276 285 349 297 296 307 299 295 298
41 1 310 129 292 317 55 345 306 324 285 262 332 316 274 267 265 261 251 251 249 276 270 237 246 259 272 269 290 266 258 250 255 251 258 260 285 344 305 316 295 304 305 301 302
Wind_Speed_850mb
39 37 34 27 22 21 20 21 21 21 21 19 22 24 25 23 22 27 32 24 23 27 18 21 29 27 24 25 20 20 22 30 36 29 15 12 17 8 6 10 6 3 4 10 6
41 37 33 28 22 20 22 22 22 21 19 18 18 19 20 20 21 34 16 20 26 30 22 29 35 34 32 30 22 27 26 40 26 20 18 15 10 4 10 15 14 13 6 9 3
48 38 31 27 24 23 21 21 21 22 18 15 16 14 14 15 14 3 8 17 23 35 22 25 29 34 29 27 28 29 28 27 12 31 25 22 16 22 24 24 23 18 16 15 9
55 49 37 28 22 23 21 18 19 20 21 15 11 11 9 9 1 2 6 14 30 36 25 26 33 32 29 24 29 20 33 21 27 27 28 25 28 20 26 34 26 30 29 26 24
57 59 50 35 25 19 20 18 17 19 20 17 10 6 6 11 8 9 9 24 37 29 27 29 34 29 27 30 22 30 20 27 30 27 28 26 27 28 27 26 30 25 22 23 24
54 59 58 47 30 22 18 17 17 17 19 19 12 6 4 13 5 2 15 28 21 25 24 23 21 19 18 16 29 18 27 23 24 28 30 29 31 28 19 20 25 23 24 22 22
52 56 59 59 37 26 20 18 19 20 21 16 15 8 13 12 6 10 17 16 20 20 22 21 19 23 15 15 14 16 20 24 29 28 23 22 32 30 30 25 24 22 21 20 19
50 55 59 60 56 28 23 19 20 28 22 14 12 7 11 15 12 18 18 14 20 17 14 14 17 13 20 8 17 24 19 24 17 20 27 22 28 20 16 20 26 19 20 19 21
53 56 57 59 55 37 21 20 24 20 12 7 6 5 6 15 16 23 23 14 16 12 11 10 17 12 16 24 20 19 22 23 18 21 12 26 21 9 15 14 18 19 17 16 17
56 59 57 56 56 46 20 17 17 14 7 5 11 10 13 19 19 22 23 17 15 17 18 17 19 19 20 20 23 21 26 20 21 13 19 26 24 20 25 22 23 20 20 21 18
58 62 62 54 53 47 16 11 3 6 14 19 7 7 8 10 15 22 26 24 16 24 22 26 20 24 27 25 17 9 13 17 14 10 18 27 26 23 24 24 28 28 24 24 26
62 63 66 58 49 36 14 11 8 8 19 27 28 34 24 6 16 24 32 33 24 26 18 15 28 23 8 11 19 20 22 24 19 19 13 26 29 26 22 26 33 29 29 30 30
64 66 67 58 41 18 13 16 10 10 13 4 14 21 24 28 20 31 41 41 23 28 24 29 2 9 24 24 24 25 25 17 20 13 19 27 35 34 28 34 30 33 36 30 25
69 73 66 53 18 13 13 16 9 8 9 14 10 8 22 22 18 25 41 33 19 24 24 22 27 18 20 29 27 25 21 22 23 22 19 4 22 24 17 23 25 35 30 28 27
77 75 52 33 18 9 8 13 7 4 7 9 12 11 25 29 11 27 35 34 28 21 15 5 12 26 31 30 28 27 5 20 22 26 29 33 21 26 26 19 29 27 31 29 27
80 54 32 8 10 13 19 7 5 11 5 10 11 15 22 30 9 11 29 32 20 24 26 32 7 10 17 14 16 8 16 27 25 25 30 36 33 22 21 23 22 22 20 20 17
58 39 24 8 5 16 18 8 10 10 2 7 5 10 12 15 23 15 25 33 21 21 28 33 36 36 22 27 27 25 24 19 25 25 26 28 27 22 22 16 21 18 16 15 18
35 23 21 10 15 20 13 11 11 8 6 5 5 10 9 3 4 14 22 21 28 27 28 26 28 35 22 34 34 33 34 26 31 25 26 12 14 12 1 12 21 8 8 10 16
17 26 24 17 17 10 12 10 9 6 8 11 15 17 13 9 5 6 10 9 8 3 20 17 27 2 12 17 17 25 22 32 41 42 36 39 45 34 26 19 17 12 10 16 23
18 9 21 15 9 5 11 6 1 9 14 10 15 3 21 10 8 5 12 15 12 7 15 8 24 25 19 16 27 25 29 21 21 29 43 31 32 20 14 17 20 14 8 20 29
13 1 21 2 5 11 8 6 3 12 17 10 15 19 20 17 14 15 13 14 21 22 18 19 14 22 26 21 27 20 27 34 32 30 27 28 20 13 7 6 10 17 25 33 35
11 1 24 4 9 3 4 6 5 12 13 8 11 14 16 7 17 18 22 3 11 10 14 9 12 25 38 27 15 22 29 32 19 22 25 21 21 24 3 1 3 22 31 41 45
11 6 16 8 4 4 2 4 8 12 10 9 14 9 6 19 12 17 19 7 21 19 5 3 10 14 19 32 34 34 33 34 26 14 31 25 18 12 6 18 27 30 39 34 32
8 2 9 17 14 12 12 6 7 10 17 13 15 16 22 25 19 12 14 8 13 20 9 4 19 23 25 25 7 14 14 17 17 9 28 30 38 31 33 27 28 31 29 31 34
12 6 6 6 10 13 8 8 15 9 5 12 6 15 9 6 16 14 17 22 19 23 28 9 15 27 33 34 35 34 38 38 39 33 33 34 43 37 32 30 24 23 28 30 26
8 8 3 5 6 11 3 5 8 8 7 7 10 7 7 9 14 7 6 5 14 13 18 21 11 18 23 22 24 36 41 42 44 43 42 41 42 32 12 16 21 25 25 34 35
6 6 5 5 3 6 2 6 11 18 15 18 7 12 15 25 29 35 38 30 22 21 13 7 13 7 20 13 20 25 31 31 35 31 27 29 21 21 24 20 26 33 36 43 47
Wind_Direction_850mb
9 6 358 351 348 345 342 338 332 321 308 298 289 283 279 273 273 273 259 241 232 213 197 182 189 192 191 203 207 215 230 228 218 225 211 201 218 206 263 259 287 271 343 7 125
8 4 1 354 351 352 345 343 338 331 317 298 285 285 284 282 280 271 270 232 213 204 184 178 181 182 191 203 202 215 225 230 235 222 237 185 235 226 268 237 249 241 195 27 109
8 2 360 353 341 341 345 345 345 341 334 307 289 282 283 295 292 198 242 204 195 175 179 183 181 182 195 196 200 213 241 224 251 245 246 249 243 261 267 257 252 260 272 271 263
18 9 356 350 341 332 335 341 345 348 341 329 307 295 296 299 353 267 251 174 162 161 167 167 176 189 201 199 194 223 229 240 230 235 247 252 262 250 255 259 277 274 278 281 272
12 14 6 346 336 328 324 326 336 340 342 338 323 308 316 262 265 285 189 156 160 162 174 177 182 194 204 205 196 228 217 224 237 244 248 258 252 256 252 256 263 265 267 273 266
8 7 8 358 333 321 315 310 318 328 331 329 322 310 312 249 244 167 154 165 170 171 182 186 195 198 200 206 211 204 238 237 235 237 242 251 251 239 237 228 248 253 256 256 262
359 1 2 4 346 319 309 302 305 308 310 308 308 301 262 253 183 158 147 164 179 177 184 185 189 188 171 180 201 210 232 222 231 229 234 245 250 235 245 246 251 247 249 254 262
348 352 353 355 359 328 305 301 301 305 292 279 294 296 249 214 183 172 163 149 158 158 153 174 175 205 216 145 184 215 231 238 204 212 221 220 257 231 201 239 241 245 250 252 258
337 339 343 345 348 342 302 296 306 302 280 242 286 233 226 204 191 189 177 164 169 180 165 132 172 198 184 204 203 202 247 209 192 201 212 214 249 116 197 229 236 242 245 253 253
335 334 333 337 337 343 301 296 310 303 249 241 232 246 226 202 182 177 187 167 162 154 162 190 200 207 220 214 227 231 221 235 250 166 221 230 241 239 246 223 232 244 256 259 258
329 328 326 328 328 332 281 287 292 210 219 241 283 254 167 178 182 194 193 188 188 201 204 203 222 217 215 220 305 285 263 255 251 245 252 253 253 253 254 228 240 243 252 260 263
327 325 321 319 319 322 251 224 274 303 290 257 244 241 240 199 199 198 189 194 201 213 203 200 230 244 236 228 224 225 240 246 262 255 267 261 261 255 255 247 246 259 262 261 263
328 326 320 313 313 304 248 228 252 315 267 241 221 233 214 197 210 192 192 203 211 222 212 244 101 303 204 208 220 225 242 247 258 273 261 266 267 254 243 244 253 254 260 263 255
329 325 319 311 311 257 271 215 265 307 273 133 189 194 183 192 219 205 198 202 218 239 226 256 249 216 211 225 218 246 205 251 260 266 269 44 280 273 252 240 246 250 249 248 262
332 329 315 300 256 265 224 200 277 227 274 127 118 152 167 192 110 190 198 208 231 208 224 181 202 215 226 228 224 254 294 261 268 266 271 257 250 265 243 232 246 249 249 261 265
343 338 336 313 235 219 186 214 193 230 196 127 134 170 168 208 180 139 195 216 247 242 225 265 171 256 239 227 231 198 235 247 251 255 255 251 250 264 255 219 235 242 256 259 278
354 4 18 88 132 166 172 179 230 254 119 120 118 182 214 188 221 204 188 202 220 217 231 241 241 241 230 249 220 223 250 255 248 230 246 250 253 269 286 260 270 290 318 311 298
359 12 19 23 165 152 165 217 250 53 3 32 286 251 235 191 183 219 225 224 218 272 277 270 255 236 218 233 253 243 233 252 271 272 278 148 238 251 77 305 293 299 294 318 331
4 33 26 50 143 152 241 234 8 12 355 329 292 251 187 133 191 225 321 304 24 298 250 271 244 4 246 259 239 251 228 255 278 268 269 270 273 261 228 240 234 264 297 336 336
14 50 22 61 105 155 248 14 317 7 331 294 285 284 276 240 245 325 347 357 284 3 343 303 281 261 268 279 257 254 285 261 226 259 258 252 247 260 189 243 189 234 313 318 321
29 222 359 17 34 242 288 51 339 349 341 313 295 278 284 265 258 204 198 190 209 256 292 322 269 258 245 227 249 237 244 236 264 271 270 271 270 43 292 313 323 314 320 314 313
14 223 354 34 232 338 334 9 324 335 345 292 288 293 270 272 273 281 278 275 259 311 276 250 287 263 258 264 230 246 263 268 248 256 259 273 263 305 252 227 266 311 310 306 304
354 347 352 357 331 52 19 247 345 335 343 314 281 268 301 277 267 270 263 287 257 257 260 14 231 265 246 232 239 250 252 241 254 249 241 252 248 150 222 243 302 312 309 306 311
340 288 49 57 49 343 347 329 315 335 294 306 297 290 277 259 238 249 265 269 328 285 255 224 253 254 271 297 298 282 278 266 265 256 264 255 267 278 280 305 307 314 305 308 314
11 62 20 1 39 347 330 326 333 333 322 338 302 281 264 262 263 239 264 278 271 259 234 214 259 265 269 275 276 274 269 261 245 249 254 274 279 289 304 309 324 300 301 313 308
13 350 357 80 360 337 297 335 312 19 345 304 246 285 291 256 258 284 292 261 270 266 229 193 258 261 265 255 260 261 259 258 258 258 255 263 276 285 349 297 296 307 299 295 298
41 1 310 129 292 317 55 345 306 324 285 262 332 316 274 267 265 261 251 251 249 276 270 237 246 259 272 269 290 266 258 250 255 251 258 260 285 344 305 316 295 304 305 301 302